Regional Weather Roundup
Issued by NWS Green Bay, WI

Home | Current Version | Previous Version | Graphics & Text | Print | Product List | Glossary Off
Versions: 1 2 3 4 5 6 7 8 9 10 11 12 13 14 15 16 17 18 19 20 21 22 23 24 25 26 27 28 29 30 31 32 33 34 35 36 37 38 39 40 41 42 43 44 45 46 47 48 49 50

000
ASUS43 KGRB 011559
RWRGRB

NORTH-CENTRAL AND NORTHEAST WISCONSIN REGIONAL WEATHER ROUNDUP
NATIONAL WEATHER SERVICE GREEN BAY WI
1100 AM CDT WED APR 01 2015

WIZ005-009-010>012-018-019-011700-
NORTH CENTRAL WISCONSIN

CITY           SKY/WX    TMP DP  RH WIND       PRES   REMARKS
IRONWOOD       CLOUDY    45  30  57 SE10      29.81F
MANITOWISH WTR NOT AVBL
ARBOR VITAE    NOT AVBL
EAGLE RIVER    NOT AVBL
LAND O LAKES   NOT AVBL
RHINELANDER    CLOUDY    43  31  62 SE14G21   29.94F
PHILLIPS       NOT AVBL
ANTIGO         NOT AVBL
TOMAHAWK       NOT AVBL
MERRILL        NOT AVBL
$$

WIZ013-073-011700-
NORTHEAST WISCONSIN

CITY           SKY/WX    TMP DP  RH WIND       PRES   REMARKS
IRON MOUNTAIN  CLOUDY    37  28  70 S8        30.00F
MARINETTE      PTSUNNY   36  30  80 E3        30.06S
$$

WIZ017-030-035>037-045-011700-
CENTRAL WISCONSIN

CITY           SKY/WX    TMP DP  RH WIND       PRES   REMARKS
MEDFORD        NOT AVBL
WAUSAU         MOSUNNY   48  33  56 SE15      29.94F
MOSINEE        NOT AVBL
MARSHFIELD     MOSUNNY   53  32  44 SE14G22   29.92F
WISC RAPIDS    MOSUNNY   55  29  36 SE14G20   29.95F
STEVENS POINT  NOT AVBL
WAUPACA        NOT AVBL
SHAWANO        NOT AVBL
CLINTONVILLE   NOT AVBL
$$

WIZ038-039-048-051-011700-
FOX VALLEY

CITY           SKY/WX    TMP DP  RH WIND       PRES   REMARKS
NWS GREEN BAY  PTSUNNY   44  36  73 SE9       30.04F
APPLETON       MOSUNNY   45  32  61 SE9       30.04S
OSHKOSH        MOSUNNY   52  34  50 E13       30.01F
FOND DU LAC    MOSUNNY   53  32  44 SE14      30.01F
$$

WIZ022-050-052-011700-
EAST CENTRAL WISCONSIN

CITY           SKY/WX    TMP DP  RH WIND       PRES   REMARKS
STURGEON BAY   CLOUDY    37  30  75 E6        30.08S
MANITOWOC      NOT AVBL
SHEBOYGAN        N/A     44  34  67 MISG      30.06F
$$

LMZ563-521-522-541>543-011700-
LAKESHORE

STATION/POSITION TIME  TEMP    WIND        PRES    VSBY  WAVE
                       AIR SEA DIR/SP/G                  HT/PER
                 (UTC) (F)     (DEG/KT/KT) (MB)    (MI)  (FT/S)
SHEBOYGAN LKSHOR 1500   36     100/  2/  2 1019.2R
KEWAUNEE LKSHORE 1500   35     150/  2/  4 1017.6R
TWO RIVERS CG    1500   39 39              1019.2   3 1/2  1
NORTHPORT PIER   1500   31     110/  3/  5 1018.6R
SISTER BAY LKSHO 1500   42     170/ 10/ 12   N/A
STURGEON BAY CG  1500   35      80/  4     1018.8      6   1
CHAMBERS ISLAND  1500   35     120/  2/  4 1018.3F
MENOMINEE LKSHOR 1500   32      20/  3     1018.7R
$$


USA.gov is the U.S. government's official web portal to all federal, state and local government web resources and services.